Volver al catálogo

MAGION 5

ActivoCienciaHEO
NORAD 24292·PAYLOAD·🇨🇿 Czechia

Lanzado Aug 29, 1996 desde Plesetsk Cosmodrome

Loading…

Próximos Pases (próximas 24 horas)

TLE

ActualizadoSource: Space-Track

Época: Sep 11, 2026, 01:17 UTC

1 24292U 96050B   26254.05365035  .00000024  00000-0 -46091-3 0  9995
2 24292  62.6689 134.9562 5594118 271.3401  28.7309  4.14736509454785

Sigue MAGION 5 en tiempo real con AllMySat

Download on the App Store